Waarnemingen

Advertentie
Mijn weer
Kalmar, Zweden (2670): temperatuur & dauwpunt: 18.10.2018 00:00:00 - 24.10.2018 00:00:00 (CEST)Kalmar, Zweden (2670): windsnelheid: 18.10.2018 00:00:00 - 24.10.2018 00:00:00 (CEST)Kalmar, Zweden (2670): windrichting: 18.10.2018 00:00:00 - 24.10.2018 00:00:00 (CEST)Kalmar, Zweden (2670): luchtdruk: 18.10.2018 00:00:00 - 24.10.2018 00:00:00 (CEST)Kalmar, Zweden (2670): zicht: 18.10.2018 00:00:00 - 24.10.2018 00:00:00 (CEST)
Datum & Tijd tt [°C] td [°C] ff [km/u] ff [kn] dd ppp [hPa] vv [km]
24.10.2018 00:00:00 7,0 1,9 21 11 WNW 995,9 10
23.10.2018 23:00:00 7,0 1,3 18 10 NNW 995,3 10
23.10.2018 22:00:00 7,5 2,0 18 10 NW 994,7 10
23.10.2018 21:00:00 5,8 3,1 13 7 WNW 993,9 10
23.10.2018 20:00:00 6,0 3,2 13 7 WNW 993,1 10
23.10.2018 19:00:00 8,1 3,9 18 10 WNW 992,7 10
23.10.2018 18:00:00 8,9 4,9 16 9 W 992,1 10
23.10.2018 17:00:00 10,8 4,7 18 10 WNW 991,5 10
23.10.2018 16:00:00 11,0 5,5 18 10 WNW 991,3 10
23.10.2018 15:00:00 12,2 5,6 31 17 NW 991,0 10
23.10.2018 14:00:00 11,8 6,9 37 20 W 991,3 10
23.10.2018 13:00:00 12,1 6,8 34 18 WNW 991,5 10
23.10.2018 12:00:00 11,5 7,4 31 17 W 991,9 10
23.10.2018 11:00:00 10,9 7,8 26 14 W 992,0 10
23.10.2018 10:00:00 10,3 8,4 34 18 W 992,5 10
23.10.2018 09:00:00 10,0 8,1 24 13 WZW 993,7 7
23.10.2018 08:00:00 9,2 7,5 26 14 WZW 994,9 10
23.10.2018 07:00:00 8,5 6,8 26 14 ZW 996,9 10
23.10.2018 06:00:00 7,8 6,3 26 14 ZW 999,9 10
23.10.2018 05:00:00 6,9 5,7 21 11 ZW 1003,1 10
23.10.2018 04:00:00 6,5 5,4 18 10 ZZW 1006,6 10
23.10.2018 03:00:00 7,0 4,8 22 12 ZW 1009,6 10
23.10.2018 02:00:00 8,5 3,7 21 11 ZW 1011,6 10
23.10.2018 01:00:00 8,3 4,1 18 10 ZW 1013,6 10
23.10.2018 00:00:00 8,4 3,8 21 11 WZW 1015,2 10
22.10.2018 23:00:00 8,3 3,9 22 12 W 1016,5 10
22.10.2018 22:00:00 8,3 3,7 26 14 W 1017,3 10
22.10.2018 21:00:00 8,0 2,9 18 10 W 1018,0 10
22.10.2018 20:00:00 8,4 2,2 21 11 W 1018,4 10
22.10.2018 19:00:00 8,7 1,6 18 10 W 1018,7 10
22.10.2018 18:00:00 9,9 1,0 22 12 W 1018,8 10
22.10.2018 17:00:00 11,2 0,3 29 16 W 1018,8 10
22.10.2018 16:00:00 12,2 0,6 29 16 W 1018,7 10
22.10.2018 15:00:00 12,4 1,1 34 18 WNW 1018,3 10
22.10.2018 14:00:00 12,7 0,4 29 16 WNW 1018,3 10
22.10.2018 13:00:00 12,3 0,7 29 16 WNW 1018,1 10
22.10.2018 12:00:00 11,7 3,2 37 20 WNW 1018,4 10
22.10.2018 11:00:00 11,3 5,2 29 16 WNW 1018,4 10
22.10.2018 10:00:00 10,3 5,7 26 14 WNW 1018,4 10
22.10.2018 09:00:00 9,9 6,1 21 11 W 1018,2 10
22.10.2018 08:00:00 10,3 6,8 22 12 W 1017,7 10
22.10.2018 07:00:00 12,0 8,8 21 11 W 1016,7 10
22.10.2018 06:00:00 12,7 9,7 24 13 W 1016,6 10
22.10.2018 05:00:00 13,6 11,5 21 11 WZW 1016,1 10
22.10.2018 04:00:00 13,1 11,3 18 10 WZW 1016,4 9
22.10.2018 03:00:00 13,2 11,3 18 10 ZW 1016,9 8
22.10.2018 02:00:00 13,0 11,2 21 11 ZW 1017,6 7
22.10.2018 01:00:00 12,6 11,2 21 11 ZW 1018,0 8
22.10.2018 00:00:00 12,4 11,1 21 11 ZW 1018,8 9
21.10.2018 23:00:00 12,3 10,7 21 11 ZW 1019,5 10
21.10.2018 22:00:00 12,1 10,0 16 9 ZZW 1019,9 10
21.10.2018 21:00:00 11,9 9,6 16 9 ZZW 1020,4 10
21.10.2018 20:00:00 11,7 9,3 13 7 ZZW 1021,0 10
21.10.2018 19:00:00 11,7 8,5 15 8 ZZW 1021,6 10
21.10.2018 18:00:00 11,8 8,1 18 10 ZW 1021,7 10
21.10.2018 17:00:00 12,6 8,3 16 9 ZW 1022,1 10
21.10.2018 16:00:00 13,2 8,1 18 10 ZW 1022,7 10
21.10.2018 15:00:00 13,8 6,4 18 10 ZW 1023,0 10
21.10.2018 14:00:00 13,9 6,7 16 9 ZW 1023,6 10
21.10.2018 13:00:00 13,0 6,6 16 9 ZW 1024,1 10
21.10.2018 12:00:00 11,8 7,7 15 8 WZW 1025,0 10
21.10.2018 11:00:00 9,2 7,1 13 7 ZW 1025,1 10
21.10.2018 10:00:00 5,7 5,3 8 4 ZW 1025,4 10
21.10.2018 09:00:00 2,4 2,4 4 2 - 1025,6 10
21.10.2018 08:00:00 -1,5 -1,5 5 3 WZW 1025,5 10
21.10.2018 07:00:00 -1,4 -1,4 4 2 WZW 1025,5 3,3
21.10.2018 06:00:00 -2,2 -2,2 4 2 ZZW 1025,4 2,2
21.10.2018 05:00:00 -2,0 -2,0 4 2 Z 1025,4 2,0
21.10.2018 04:00:00 -1,6 -1,6 4 2 Z 1025,6 0,2
21.10.2018 03:00:00 -0,8 -0,8 2 1 - 1025,5 0,2
21.10.2018 02:00:00 -1,0 -1,0 2 1 ZW 1025,5 2,1
21.10.2018 01:00:00 -0,2 -0,2 0 0 N 1025,2 0,2
21.10.2018 00:00:00 0,3 0,3 2 1 WZW 1025,3 0,3
20.10.2018 23:00:00 1,2 1,2 4 2 WZW 1025,1 0,2
20.10.2018 22:00:00 2,2 2,2 0 0 N 1025,1 0,2
20.10.2018 21:00:00 3,2 3,1 0 0 N 1024,8 0,3
20.10.2018 20:00:00 5,0 4,1 0 0 N 1024,3 10
20.10.2018 19:00:00 9,3 6,2 5 3 W 1023,9 10
20.10.2018 18:00:00 10,6 6,5 5 3 WNW 1023,6 10
20.10.2018 17:00:00 11,7 6,4 9 5 W 1023,2 10
20.10.2018 16:00:00 12,2 6,9 11 6 W 1023,1 10
20.10.2018 15:00:00 12,3 6,8 15 8 W 1023,2 10
20.10.2018 14:00:00 12,6 7,3 15 8 W 1023,1 10
20.10.2018 13:00:00 11,4 7,1 16 9 W 1023,2 10
20.10.2018 12:00:00 11,1 7,0 11 6 W 1023,2 10
20.10.2018 11:00:00 9,3 6,6 11 6 WNW 1023,2 10
20.10.2018 10:00:00 8,1 6,2 11 6 W 1023,0 10
20.10.2018 09:00:00 7,3 5,9 11 6 W 1022,7 10
20.10.2018 08:00:00 6,8 5,7 11 6 W 1022,5 10
20.10.2018 07:00:00 6,4 5,4 13 7 W 1022,3 10
20.10.2018 06:00:00 5,1 4,7 5 3 - 1022,0 10
20.10.2018 05:00:00 4,7 4,4 8 4 WZW 1022,3 10
20.10.2018 04:00:00 4,5 3,9 5 3 WZW 1022,4 10
20.10.2018 03:00:00 4,6 4,0 5 3 W 1022,6 10
20.10.2018 02:00:00 2,7 2,4 5 3 WZW 1022,6 10
20.10.2018 01:00:00 0,7 0,6 2 1 W 1022,9 10
20.10.2018 00:00:00 0,0 -0,1 8 4 W 1023,1 4,3
19.10.2018 23:00:00 1,0 0,6 4 2 ZW 1023,4 10
19.10.2018 22:00:00 1,3 0,6 2 1 - 1023,5 10
19.10.2018 21:00:00 3,2 1,4 5 3 WZW 1023,4 10
19.10.2018 20:00:00 5,6 3,1 8 4 WZW 1023,2 10
19.10.2018 19:00:00 3,9 2,3 5 3 ZZW 1023,3 10
19.10.2018 18:00:00 8,5 3,9 9 5 Z 1023,2 10
19.10.2018 17:00:00 9,7 4,9 9 5 Z 1023,3 10
19.10.2018 16:00:00 11,2 5,3 13 7 Z 1023,6 10
19.10.2018 15:00:00 13,6 1,6 9 5 WZW 1023,7 10
19.10.2018 14:00:00 12,3 2,7 8 4 W 1024,5 10
19.10.2018 13:00:00 12,0 4,5 5 3 WNW 1024,6 10
19.10.2018 12:00:00 8,9 4,7 4 2 W 1024,9 10
19.10.2018 11:00:00 6,3 4,0 5 3 NW 1024,9 10
19.10.2018 10:00:00 4,0 2,7 0 0 N 1025,1 10
19.10.2018 09:00:00 1,6 1,0 0 0 N 1024,8 10
19.10.2018 08:00:00 -2,3 -2,4 0 0 N 1024,4 5
19.10.2018 07:00:00 -2,6 -2,9 5 3 NW 1024,1 10
19.10.2018 06:00:00 -2,2 -2,5 0 0 N 1023,9 10
19.10.2018 05:00:00 -1,3 -1,3 2 1 NNW 1023,6 1,6
19.10.2018 04:00:00 -1,5 -1,5 5 3 NNW 1023,7 0,5
19.10.2018 03:00:00 -0,5 -0,6 2 1 WNW 1023,6 1,5
19.10.2018 02:00:00 -0,5 -0,9 0 0 N 1023,6 10
19.10.2018 01:00:00 0,9 0,2 0 0 N 1023,6 10
19.10.2018 00:00:00 3,3 1,3 5 3 NNW 1023,3 10
18.10.2018 23:00:00 3,2 0,9 8 4 NW 1022,9 10
18.10.2018 22:00:00 4,3 1,8 8 4 NW 1022,6 10
18.10.2018 21:00:00 4,5 1,9 9 5 NNW 1022,2 10
18.10.2018 20:00:00 6,7 3,1 8 4 NW 1021,4 10
18.10.2018 19:00:00 8,2 2,4 8 4 NNW 1021,0 10
18.10.2018 18:00:00 9,8 3,7 13 7 N 1020,2 10
18.10.2018 17:00:00 14,3 6,6 9 5 NNW 1019,4 10
18.10.2018 16:00:00 16,1 7,3 15 8 NW 1018,7 10
18.10.2018 15:00:00 16,2 8,2 16 9 NNW 1018,4 10
18.10.2018 14:00:00 15,1 14,1 4 2 - 1018,6 7
18.10.2018 13:00:00 13,5 13,3 4 2 WNW 1018,7 4,1
18.10.2018 12:00:00 12,5 12,5 5 3 W 1018,6 2,8
18.10.2018 11:00:00 11,1 11,1 5 3 WZW 1018,5 1,6
18.10.2018 10:00:00 9,9 9,9 2 1 - 1018,4 0,6
18.10.2018 09:00:00 7,2 7,2 4 2 WZW 1018,3 0,1
18.10.2018 08:00:00 5,4 5,4 4 2 WZW 1017,9 1,3
18.10.2018 07:00:00 3,5 3,5 4 2 Z 1017,6 10
18.10.2018 06:00:00 2,6 2,6 5 3 Z 1017,9 0,4
18.10.2018 05:00:00 3,7 3,7 5 3 ZZW 1018,1 0,1
18.10.2018 04:00:00 3,7 3,7 0 0 N 1018,5 -
18.10.2018 03:00:00 4,0 4,0 4 2 Z 1018,6 -
18.10.2018 02:00:00 4,3 4,3 4 2 ZZW 1018,8 -
18.10.2018 01:00:00 4,7 4,7 5 3 Z 1019,3 -
18.10.2018 00:00:00 4,7 4,7 11 6 Z 1019,5 0,1

tt = temperatuur
td = dauwpunt
ff = windsnelheid
dd = windrichting
ppp = luchtdruk
vv = zicht

Weerstations in de omgeving